Theta_e
308 306 304 309 308 307 308 310 309 307 307 309 310 310 308 305 305 305 305 304 304 304 304 304 304 307 308 308 307 308 308 309 311 313 313 315 322 325 324 328 326 327 326 323
306 308 306 306 308 309 309 306 306 306 306 310 309 308 307 305 305 305 305 304 303 303 304 304 305 305 308 308 307 307 308 310 311 312 315 320 322 323 323 325 326 327 326 322
305 308 306 306 306 308 305 305 301 308 307 309 306 304 305 304 304 305 303 303 302 302 303 304 304 304 306 309 307 307 307 309 310 313 317 320 321 323 323 323 325 324 326 324
307 306 306 305 306 306 306 305 306 308 308 308 304 306 297 301 303 303 303 302 301 301 300 303 303 305 306 308 308 306 306 308 310 315 316 319 321 322 323 322 322 326 326 325
306 306 306 307 306 305 305 306 308 307 308 311 303 307 301 300 303 303 303 301 300 299 298 301 303 304 305 306 307 308 306 306 310 315 317 318 321 321 323 325 325 325 325 324
305 306 305 306 305 305 305 307 304 305 308 305 298 302 303 300 302 302 303 300 298 298 298 298 302 305 304 304 305 306 307 305 306 315 319 318 319 321 323 323 323 323 322 322
306 307 305 306 305 305 306 304 302 302 301 306 303 304 304 301 301 303 303 299 298 298 298 298 298 302 304 304 304 305 307 307 305 311 316 318 320 320 322 321 320 319 320 321
306 306 306 305 305 304 307 304 302 302 303 303 304 307 307 301 303 304 301 298 298 298 297 297 298 298 300 302 304 304 306 307 308 307 310 312 312 314 315 315 315 314 314 314
305 307 305 304 305 304 306 306 304 305 300 305 303 304 302 302 300 300 299 298 298 298 297 297 297 297 298 301 302 303 304 306 308 309 310 311 311 311 311 311 311 311 311 311
305 307 304 305 306 305 305 303 306 302 300 302 301 305 305 305 303 299 297 298 298 298 297 297 297 297 297 298 301 302 302 304 306 308 308 308 308 309 310 310 310 310 310 310
304 303 303 305 305 305 306 307 305 304 305 304 305 303 301 303 302 302 299 298 298 298 297 297 297 296 297 297 299 301 302 302 303 304 305 307 308 308 309 309 309 310 310 309
304 302 303 305 302 302 304 304 304 303 302 304 306 305 302 301 301 302 301 298 299 298 297 297 296 296 296 297 297 299 301 302 301 302 302 303 304 304 304 304 305 305 305 305
303 299 297 300 301 302 304 304 304 303 303 305 305 303 299 300 301 302 300 298 299 298 297 297 296 296 296 296 297 297 298 300 302 302 301 301 301 301 301 301 301 301 301 301
303 300 302 305 305 301 304 304 304 305 304 304 305 303 302 300 300 299 299 298 299 298 297 297 296 296 296 296 296 297 297 298 299 300 300 300 300 300 299 299 298 298 298 297
302 299 299 301 301 303 304 304 304 306 304 304 303 303 303 301 299 301 302 298 298 298 297 297 297 296 296 296 296 296 297 297 297 297 297 297 297 297 297 297 297 296 296 296
300 299 297 296 297 299 300 302 302 304 305 304 304 305 300 303 302 301 301 299 298 299 298 297 297 296 296 296 296 296 296 296 297 297 297 297 296 296 296 296 295 295 295 294
300 297 295 297 293 292 300 296 300 301 300 304 305 305 300 299 299 301 302 301 300 300 300 298 297 297 296 296 296 296 296 296 296 296 296 296 295 295 295 295 294 294 294 293
296 294 290 294 290 300 305 296 296 300 300 301 302 300 301 302 304 305 305 304 302 300 300 299 297 297 296 296 295 296 295 296 295 295 295 295 295 294 294 293 293 293 293 293
297 296 288 296 291 299 305 295 296 297 301 298 301 301 299 301 302 302 304 304 305 304 301 301 299 297 297 296 295 296 296 296 295 295 295 294 294 294 293 293 293 293 293 293
295 295 296 283 296 302 305 295 295 296 301 297 298 298 297 300 300 300 302 304 305 305 301 300 299 297 297 296 295 295 295 295 295 295 294 294 293 293 293 293 293 293 293 293
297 292 295 289 292 294 297 294 295 301 308 296 297 297 298 298 300 302 302 303 304 306 303 300 299 299 297 296 295 295 295 295 295 294 294 293 293 293 293 293 293 293 294 293
301 298 292 286 291 300 295 293 298 301 298 299 298 298 299 300 301 302 302 302 303 304 302 300 299 298 297 296 295 295 295 295 295 294 293 293 293 293 293 293 293 293 293 293
302 299 299 298 299 298 296 299 299 300 299 299 300 300 299 299 300 301 301 303 303 304 303 300 299 298 297 296 295 295 295 295 295 294 293 293 292 292 293 293 293 293 293 293
295 295 296 298 301 297 297 300 298 299 299 299 299 299 300 300 300 300 302 304 304 303 303 300 299 298 298 296 296 295 295 295 294 293 292 292 293 293 293 293 293 293 293 293
296 296 294 295 297 297 299 301 303 301 299 299 299 299 299 299 300 300 301 304 304 304 302 300 299 299 299 297 296 295 296 295 294 293 292 292 293 293 293 293 292 292 292 293
293 296 301 301 302 303 305 308 309 304 302 301 300 299 299 299 299 299 300 301 303 303 302 300 300 300 299 298 296 295 296 295 294 293 292 292 292 292 292 292 292 292 292 293
Wind_Speed
4 5 2 4 3 4 5 3 3 3 2 3 3 3 2 5 9 11 16 20 21 23 24 25 26 25 27 33 30 27 30 25 22 23 25 24 24 26 26 29 25 27 35 27
4 3 4 5 4 4 2 2 3 4 3 2 3 6 4 1 3 6 10 14 19 26 31 31 29 28 24 33 31 25 23 22 20 19 19 18 20 24 22 27 25 27 25 24
4 3 5 3 2 3 3 3 3 3 4 1 6 3 2 3 7 7 8 13 18 22 28 33 34 32 29 30 32 28 19 16 17 14 17 18 17 15 17 22 24 25 24 33
3 2 4 2 2 4 1 4 3 2 3 2 4 4 5 3 7 5 7 12 17 21 24 26 32 36 38 36 32 30 24 17 13 8 14 19 16 18 17 19 20 24 32 27
2 5 3 2 2 4 2 4 3 0 1 2 4 1 6 2 5 5 6 10 14 18 21 23 25 29 34 35 35 37 21 26 11 6 10 17 16 14 15 16 17 23 24 26
2 1 2 3 2 1 3 3 3 3 1 1 3 3 5 4 5 3 4 7 12 17 19 22 20 24 29 34 33 28 32 31 27 7 7 11 18 14 14 19 17 18 18 19
1 1 1 2 2 1 2 3 3 4 3 3 3 1 8 5 6 5 4 4 8 12 16 19 22 23 23 30 32 36 32 34 36 30 15 14 17 20 21 20 25 22 21 19
5 3 5 3 2 4 1 3 4 4 2 4 2 5 5 5 5 6 4 2 5 9 12 16 18 19 17 20 25 32 36 34 40 41 40 36 38 34 33 34 34 39 40 41
5 2 2 2 1 1 2 2 2 5 1 2 3 6 5 2 4 7 7 4 3 6 9 13 15 18 18 18 19 22 28 32 33 41 43 45 47 48 49 48 43 40 39 38
5 4 1 2 2 3 2 4 3 3 1 4 4 5 4 6 10 7 8 9 4 1 5 8 12 15 17 17 15 14 17 21 27 31 34 37 38 38 38 38 36 31 31 31
3 2 0 2 5 6 2 2 3 2 3 3 3 5 6 6 9 12 15 13 8 4 1 5 8 11 14 14 15 15 15 17 18 20 25 28 29 30 32 35 32 28 28 28
5 4 3 3 0 1 2 5 5 3 4 2 1 7 1 6 8 16 18 17 12 8 4 1 4 7 10 12 13 15 15 16 18 19 21 22 24 25 27 29 27 26 26 24
7 2 2 6 4 2 5 5 3 4 2 6 4 6 2 3 4 13 16 19 15 12 8 5 2 3 6 9 11 12 14 16 16 16 19 21 22 23 25 25 26 25 25 25
8 2 5 6 3 4 5 5 6 5 3 4 8 4 5 6 7 12 18 20 18 15 12 8 5 3 4 7 9 10 13 14 14 15 17 20 21 22 23 24 24 24 24 23
3 5 2 3 3 2 3 5 10 15 7 8 3 11 11 10 12 24 25 21 21 20 17 13 9 6 5 5 7 9 11 13 13 14 16 17 18 19 20 21 22 22 22 22
2 2 2 3 2 2 6 11 12 15 16 17 16 26 12 19 15 18 23 27 26 24 20 16 13 10 7 6 6 8 10 12 12 14 16 16 16 17 18 19 19 18 19 18
7 6 3 4 3 4 10 13 21 9 7 19 12 14 5 4 12 24 28 31 33 29 24 20 16 13 10 9 8 9 9 11 11 11 13 14 14 14 14 15 14 15 14 14
6 5 2 3 3 2 6 4 5 18 8 16 10 8 9 11 23 22 29 31 36 32 27 21 18 16 13 11 11 10 11 10 9 8 9 9 11 10 10 12 11 13 13 12
1 5 2 4 4 7 8 5 8 8 8 24 25 19 12 10 7 21 26 26 32 34 31 25 19 16 14 14 14 13 12 10 9 7 7 7 7 7 7 8 10 12 12 11
4 4 3 2 5 8 5 3 6 4 7 6 22 13 10 15 4 7 18 26 31 30 32 28 24 21 18 17 17 16 14 13 11 9 8 8 6 6 7 7 9 9 9 10
4 2 7 3 5 8 10 8 11 5 6 7 18 18 25 8 12 2 6 24 28 32 32 31 28 24 19 19 19 19 17 15 13 12 11 8 7 6 6 5 6 7 8 8
11 10 4 3 2 11 20 9 9 6 5 9 10 17 26 26 18 15 4 12 30 30 35 35 32 26 24 21 21 22 19 18 16 15 13 10 8 6 5 3 4 4 4 7
6 8 7 12 9 2 34 9 31 7 7 10 11 10 13 16 21 17 15 15 27 31 37 39 35 30 27 24 24 24 21 20 18 17 14 12 9 8 5 3 1 1 2 5
5 5 4 4 10 16 25 37 17 26 12 11 10 10 11 10 14 18 16 18 24 33 39 41 37 34 30 27 26 23 23 21 20 18 17 15 12 10 7 4 2 2 1 2
6 15 8 6 9 3 21 39 36 38 25 22 14 13 11 11 12 16 21 20 22 32 40 42 39 36 31 27 27 27 26 23 22 20 18 16 15 12 9 7 5 4 4 3
9 8 10 8 15 9 12 23 32 39 37 37 24 22 18 14 13 15 20 25 24 31 39 42 40 37 32 30 28 29 27 25 24 22 19 18 17 14 12 9 8 8 6 4
Wind_Direction
24 74 131 158 107 126 125 137 202 252 257 310 229 288 334 12 2 351 353 4 358 354 347 358 360 355 358 356 349 330 316 307 294 278 252 248 237 230 232 241 245 245 243 228
32 130 183 125 125 108 105 115 283 293 287 222 325 292 200 207 286 302 327 354 1 4 7 7 2 359 358 355 356 346 321 311 291 273 254 230 236 232 228 236 240 240 237 209
138 177 144 126 142 132 172 152 234 243 320 264 324 326 298 259 274 286 342 344 352 1 10 19 11 5 5 356 6 2 345 318 298 269 249 224 227 224 222 228 234 246 227 220
124 149 155 135 186 149 241 185 187 296 30 290 20 287 289 257 284 269 321 346 359 1 356 359 6 13 15 15 6 359 1 2 313 257 232 210 215 223 225 232 235 233 242 220
163 160 161 172 226 186 170 152 184 233 150 310 336 84 268 333 278 277 312 344 356 359 2 1 2 15 21 17 13 14 13 23 19 269 204 203 192 206 224 207 201 201 219 229
137 177 179 184 95 200 147 123 54 61 97 348 248 113 278 198 210 257 280 344 1 2 7 12 15 17 21 20 21 14 23 36 41 128 121 189 178 187 181 179 187 200 198 199
43 218 217 153 112 313 114 71 338 352 9 227 182 85 247 230 224 219 257 339 4 7 7 12 14 24 21 10 15 21 24 48 54 87 121 127 148 171 163 153 145 133 137 151
162 284 175 165 211 183 162 167 155 228 269 291 155 237 251 209 200 220 234 314 360 2 11 12 16 15 8 13 16 23 30 40 66 75 100 111 112 116 117 117 124 115 114 111
147 183 106 81 145 129 166 188 156 109 48 4 217 278 279 158 211 213 228 250 323 358 9 13 16 19 21 26 31 25 33 44 57 69 80 92 100 102 103 103 99 95 95 93
205 116 81 133 95 47 179 155 73 11 40 296 279 272 242 214 225 217 219 220 234 332 2 21 17 21 26 33 41 43 43 46 49 68 78 86 93 96 99 100 98 96 97 104
143 83 140 109 203 183 147 206 69 119 151 193 292 263 214 218 204 200 207 202 200 208 313 23 26 26 29 34 47 55 61 66 69 67 74 83 84 87 92 98 102 103 103 106
198 137 163 188 237 291 226 208 169 141 216 227 155 270 237 236 216 197 194 195 191 193 192 48 34 37 33 40 48 58 65 66 68 76 82 87 93 94 96 99 100 104 105 108
181 266 63 351 358 351 225 197 164 113 104 204 151 263 155 260 208 200 194 193 193 192 187 178 126 57 55 53 54 61 71 72 74 77 85 90 92 97 99 100 102 105 107 106
141 150 181 188 166 135 204 193 182 157 162 192 225 254 217 221 218 216 209 202 196 196 193 185 175 143 88 72 71 70 78 82 87 92 95 97 99 101 101 103 104 104 103 101
144 201 158 260 250 229 237 204 192 209 199 194 234 221 224 209 208 215 214 204 200 202 201 190 180 171 134 100 89 89 89 94 97 103 106 104 102 103 103 103 102 99 99 94
172 170 96 301 358 258 259 235 233 223 231 252 263 278 209 226 221 220 217 208 208 209 205 197 183 175 165 140 123 105 103 104 109 114 111 107 106 103 100 97 97 97 94 90
153 140 119 260 342 336 291 222 210 199 208 218 218 238 135 174 198 222 220 213 215 211 205 199 192 183 174 162 155 135 123 116 116 116 112 114 110 110 109 104 101 98 94 90
142 113 88 198 8 274 243 159 187 218 228 214 239 224 195 207 218 232 233 224 218 214 207 202 193 184 181 172 172 163 153 142 138 134 127 126 121 118 110 103 101 91 83 76
163 134 106 156 202 297 275 194 168 177 269 217 221 235 219 209 239 247 237 232 228 213 206 201 193 189 188 184 180 177 173 166 164 156 151 145 132 118 111 109 95 82 66 58
97 51 126 142 182 218 242 181 159 138 289 202 202 215 163 155 210 250 226 219 214 213 207 197 192 192 192 191 187 184 183 182 177 176 176 170 159 148 124 100 85 79 65 49
137 68 181 183 233 284 238 158 142 101 239 164 191 191 168 190 207 171 200 208 212 208 203 197 196 198 189 193 193 189 190 188 186 185 185 186 178 161 140 116 90 71 55 41
172 159 172 107 181 265 158 125 179 202 152 169 173 189 196 212 216 216 221 203 202 203 197 196 197 195 192 195 198 195 193 192 192 190 189 193 189 180 169 137 90 64 55 37
205 187 180 190 203 228 182 210 205 189 187 192 192 193 199 207 218 225 224 211 202 201 196 196 197 194 196 198 198 199 194 196 197 194 195 199 204 201 193 165 128 49 37 36
236 180 208 132 234 225 220 227 234 220 214 204 204 203 199 202 207 210 212 211 204 201 199 196 196 197 199 200 200 196 201 202 201 201 201 202 203 202 206 219 238 269 306 7
185 151 167 267 275 281 246 234 236 232 225 226 224 225 216 208 212 211 209 209 208 203 198 199 199 201 203 204 201 199 202 206 206 207 207 208 203 206 216 227 239 250 256 327
187 167 188 213 213 204 239 238 239 231 232 229 222 221 217 222 222 222 221 217 215 208 203 203 206 207 205 207 205 205 206 208 210 214 213 212 210 209 219 229 235 245 249 285